Location: Saint-Hilaire
(43.9719°N, 4.5903°E)
Time: 16:28:18
(UTC+00:00)

Daily predictions for brighter satellites

Satellite Brightness Start Highest point End
(mag) Time Altitude Azimuth Time Altitude Azimuth Time Altitude Azimuth
Cosmos 2315 Rocket 4.1 19:26:57 10° S 19:33:16 71° E 19:39:38 10° NNE
Resurs 01 Rocket 2.6 19:31:48 10° SE 19:35:45 32° ENE 19:39:41 10° N
Cosmos 1470 Rocket 3.9 19:33:14 10° N 19:37:38 52° ENE 19:41:59 10° SSE
CREW DRAGON DEMO-1 DEB 4.2 19:36:50 10° W 19:39:02 24° SW 19:41:14 10° SSE
Cosmos 1782 3.1 19:38:38 10° SSW 19:42:35 71° W 19:46:35 10° N
Meteor 1-5 Rocket 4.3 19:39:29 10° N 19:44:42 53° ENE 19:49:51 10° SSE
USA 307 3.4 19:42:01 10° WNW 19:46:11 53° SW 19:50:20 10° SSE
SPOT 3 Rocket 4.1 19:42:25 10° SE 19:47:13 41° ENE 19:52:02 10° N
NOSS 3-4 (A) 4.0 19:41:19 10° NW 19:48:21 77° NE 19:56:12 10° SE
NOSS 3-4 (C) 4.0 19:41:26 10° NW 19:48:27 76° NE 19:56:18 10° SE
SJ 16-02 1.3 19:44:05 10° SSW 19:48:29 75° ESE 19:52:55 10° NNE
IRS-1A Rocket 4.4 19:45:02 10° SSE 19:50:52 87° ENE 19:56:49 10° NNW
Cosmos 1933 Rocket 3.9 19:46:57 10° N 19:51:09 46° ENE 19:55:20 10° SSE
Cosmos 1151 Rocket 3.7 19:47:37 10° SSW 19:51:56 60° W 19:56:17 10° N
Tianhe-1 1.4 19:49:54 10° WSW 19:52:54 46° S 19:55:57 10° E
SJ-6B 3.8 19:51:47 10° S 19:55:36 48° W 19:59:34 10° NNW
deb Kosmos-1763 4.2 19:52:21 10° NNW 19:55:52 68° WSW 19:59:22 10° S
Ariane Rocket 3.1 19:51:35 10° SSE 19:56:39 86° WSW 20:01:45 10° NNW
Cosmos 1943 Rocket 3.2 19:55:19 10° SSE 19:59:44 24° ESE 20:04:09 10° NE
USA 308 3.8 19:56:04 10° WNW 20:00:05 41° SW 20:04:03 10° SSE
ATLAS 2AS CENTAUR R/B 3.1 19:54:18 10° NNW 20:01:36 57° NE 20:07:46 12° SE
Cosmos 2082 Rocket 2.2 19:56:53 10° NNW 20:02:32 74° ENE 20:07:52 11° SSE
Terra 4.0 20:01:04 10° E 20:03:00 12° ENE 20:04:57 10° NE
Cosmos 158 Rocket 3.9 19:58:17 10° NNW 20:03:12 70° ENE 20:07:55 11° SSE
Cosmos 990 Rocket 4.4 19:58:26 10° S 20:03:18 41° ESE 20:08:13 10° NE
Meteor 1-11 Rocket 4.2 20:03:12 10° N 20:08:56 48° ENE 20:13:54 13° SE
Resurs 1-3 4.0 20:05:53 10° S 20:10:15 66° W 20:14:37 10° NNW
Cosmos 1340 Rocket 4.5 20:07:16 10° NNE 20:10:22 20° ENE 20:12:35 14° ESE
Cosmos 1900 4.5 20:05:25 10° SSW 20:10:23 55° ESE 20:15:20 10° NE
Cosmos 1898 Rocket 4.0 20:07:47 10° S 20:12:42 40° ESE 20:17:40 10° NE
CZ-2C R/B 4.0 20:13:25 10° NNE 20:17:51 48° E 20:22:18 10° S
USA 245 3.6 20:18:58 19° E 20:19:36 22° ENE 20:21:37 10° NNE
Cosmos 923 Rocket 4.1 20:15:45 10° NNW 20:21:02 72° ENE 20:25:16 16° SSE
ARIANE 5 R/B 3.6 20:18:52 16° ESE 20:21:35 31° ENE 20:25:25 10° N
Cosmos 1271 Rocket 2.8 20:17:56 10° S 20:21:56 89° E 20:25:57 10° N
Cosmos 2278 Rocket 3.6 20:20:26 10° SW 20:25:47 42° WNW 20:31:09 10° NNE
Cosmos 1461 3.4 20:21:38 10° S 20:26:07 45° ESE 20:30:33 10° NE
Cosmos 2369 Rocket 3.4 20:26:36 18° SE 20:28:47 22° E 20:33:01 10° NE
Meteor 1-10 Rocket 4.3 20:25:24 10° S 20:31:01 87° W 20:36:47 10° N
Cosmos 1666 3.0 20:28:21 10° NNW 20:32:02 61° W 20:35:18 13° S
Landsat 7 3.8 20:28:09 14° SSE 20:32:18 87° WSW 20:37:05 10° NNW
Cosmos 1818 4.0 20:27:30 10° NNW 20:32:53 54° NE 20:36:36 20° ESE
SL-24 R/B - RUBIN 2 3.9 20:29:47 10° NNW 20:35:12 80° NE 20:38:18 22° SE
Cosmos 1536 3.0 20:34:03 10° N 20:38:01 54° E 20:40:06 25° SSE
ERBS 2.8 20:35:32 10° NW 20:38:47 50° NE 20:40:21 26° ESE
USA 267 4.4 20:33:22 11° S 20:38:59 33° SW 20:44:48 10° WNW
OAO 3 Rocket 4.2 20:35:35 10° WSW 20:39:28 27° S 20:40:53 23° SSE
SPOT 5 3.7 20:39:51 21° SE 20:42:53 41° ENE 20:47:52 10° N
CZ-2C R/B 2.7 20:40:41 10° SW 20:43:05 19° S 20:43:05 19° S
Nadezhda 1 Rocket 4.0 20:38:45 10° S 20:44:58 72° E 20:51:08 10° NNE
Cosmos 2154 Rocket 4.0 20:39:54 10° N 20:46:14 73° E 20:50:44 20° SSE
Cosmos 2074 Rocket 4.2 20:42:25 10° NNW 20:48:43 73° W 20:54:25 13° S
ERS-1 Rocket 3.4 20:49:06 25° SE 20:51:44 48° ENE 20:56:35 10° N
Cosmos 2184 Rocket 4.2 20:46:05 10° NNW 20:52:16 71° W 20:57:40 14° S
ISS -1.8 20:53:23 10° W 20:56:26 32° NNW 20:59:32 10° NE
Cosmos 2112 Rocket 4.1 20:53:59 10° NNW 20:59:22 84° WSW 21:02:28 26° SSE
Cosmos 1869 Rocket 3.7 20:57:15 10° NNW 21:01:35 72° W 21:04:04 25° S
Spot 2 Rocket 3.4 21:00:39 26° SSE 21:03:36 89° W 21:08:40 10° NNW
Cosmos 1937 Rocket 3.4 20:58:56 10° SSW 21:04:00 82° ESE 21:09:12 10° NNE
JB-3 4.1 21:02:24 10° NNE 21:06:16 82° E 21:08:00 31° S
Cosmos 2228 Rocket 3.9 21:02:20 10° SSW 21:06:40 51° WNW 21:11:04 10° N
Lacrosse 5 3.9 21:09:47 12° E 21:09:47 12° E 21:10:28 10° E
Cosmos 44 3.9 21:02:12 10° NW 21:07:29 55° WSW 21:10:07 27° S
SPOT 1/Viking Rocket 3.9 21:05:53 20° S 21:09:24 59° W 21:14:32 10° NNW
Cosmos 1743 2.7 21:06:07 10° N 21:09:59 68° E 21:11:02 44° SSE
Resurs 01 Rocket 3.5 21:08:32 10° SSW 21:12:14 26° W 21:15:57 10° NW
RESURS DK-1 3.9 21:09:02 10° N 21:12:34 26° NE 21:13:58 22° E
Cosmos 2084 Rocket 3.8 21:10:40 10° NW 21:14:53 55° WSW 21:16:25 36° S
Cosmos 1707 Rocket 3.5 21:14:44 31° S 21:16:48 86° E 21:21:15 10° N
Meteor 1-27 Rocket 4.3 21:11:27 10° SSW 21:17:14 60° WNW 21:23:08 10° N
CARTOSAT-1 3.7 21:15:33 33° S 21:17:24 71° WSW 21:21:44 10° NNW
Cosmos 2366 rocket 4.4 21:17:01 10° N 21:22:59 46° ENE 21:25:29 31° SE
Cosmos 1680 Rocket 4.4 21:19:02 10° NNW 21:24:03 43° WSW 21:26:59 23° SSW
Cosmos 1867 3.5 21:23:54 24° SSW 21:27:11 63° ESE 21:32:37 10° NE
Cosmos 2181 Rocket 4.1 21:25:49 34° SSE 21:28:24 57° E 21:34:23 10° NNE
Tianhe-1 2.4 21:26:14 10° W 21:28:08 30° WSW 21:28:08 30° WSW
Meteor 2-4 Rocket 4.4 21:28:24 32° ESE 21:29:37 36° E 21:34:38 10° NNE
Meteor 1-19 Rocket 4.1 21:28:38 38° SSE 21:30:35 62° E 21:35:57 10° NNE
BREEZE-M R/B 3.2 21:34:02 10° NW 21:36:21 36° NNE 21:36:27 36° NNE
SL-27 R/B 4.2 21:35:32 10° N 21:38:02 21° ENE 21:38:02 21° ENE
BREEZE M DEB (TANK) 3.1 21:35:41 10° WNW 21:37:17 26° W 21:37:17 26° W
Cosmos 372 Rocket 3.9 21:36:41 29° SSW 21:39:23 87° WNW 21:44:31 10° NNE
Terra 1.7 21:38:38 47° S 21:40:02 87° WSW 21:44:50 10° NNW
Cosmos 1515 3.9 21:39:36 47° SW 21:40:28 64° W 21:44:14 10° N
Cosmos 1943 Rocket 2.9 21:37:39 10° SW 21:43:07 51° WNW 21:48:35 10° NNE
Cosmos 1733 Rocket 3.0 21:39:57 10° NNW 21:44:17 77° W 21:45:11 55° SSW
Cosmos 2082 Rocket 4.4 21:42:32 10° WNW 21:45:55 16° W 21:49:17 10° SW
Gbstr 26 Del rocket 4.3 21:38:50 10° WNW 21:46:13 60° SW 21:48:29 40° SSE
Cosmos 1340 Rocket 4.2 21:43:14 10° NNW 21:46:52 32° W 21:48:11 26° SW
Cosmos 1656 Rocket 3.6 21:46:52 46° SSE 21:48:18 62° ESE 21:53:46 10° NNE
Okean 1 3.6 21:49:16 47° SW 21:50:08 61° W 21:54:05 10° N
ATLAS 2AS CENTAUR R/B 3.8 21:45:52 10° NW 21:52:09 33° WSW 21:55:13 23° SSW
Cosmos 2341 Rocket 4.2 21:45:53 10° NNW 21:52:15 70° W 21:55:10 34° SSW
Cosmos 2218 Rocket 4.0 21:49:19 10° N 21:55:42 84° E 21:58:01 43° SSE
Gblst 52 Del rocket 4.5 21:50:32 10° WNW 21:57:38 73° SW 21:59:42 45° SE
ARIANE 5 R/B 4.3 21:56:25 20° SW 21:58:03 25° W 22:01:39 10° NW
Cosmos 494 Rocket 4.5 21:54:42 10° N 21:59:41 47° ENE 22:00:49 40° E
Cosmos 2298 Rocket 3.9 22:02:56 56° SSE 22:03:56 71° ESE 22:09:13 10° NNE
SL-8 Rocket 4.1 21:58:02 10° NNW 22:04:20 72° W 22:06:45 39° SSW
H-2A R/B 4.1 22:00:51 10° N 22:04:54 52° WNW 22:06:00 40° WSW
Cosmos 1908 Rocket 3.5 22:01:51 10° N 22:06:20 67° E 22:06:34 66° ESE
Nadezhda 3 Rocket 4.5 22:06:38 38° ESE 22:07:49 42° E 22:13:35 10° NNE
Cosmos 2369 Rocket 2.7 22:08:17 18° SW 22:12:21 56° WNW 22:17:56 10° NNE
ATLAS CENTAUR R/B 1.6 22:12:29 53° WNW 22:12:46 55° NW 22:16:30 10° NNE
Okean 1-7 3.0 22:21:21 71° ENE 22:21:21 71° ENE 22:25:23 10° NNE
Cosmos 1238 Rocket 4.3 22:16:52 10° NNW 22:21:54 38° W 22:23:11 32° WSW
Spot 4 4.1 22:24:53 54° E 22:25:21 57° ENE 22:30:07 10° N
Cosmos 2344 4.5 22:18:35 10° NW 22:27:52 72° NE 22:35:51 26° SE
Cosmos 2242 Rocket 3.5 22:27:54 84° WSW 22:27:59 84° W 22:32:30 10° N
Cosmos 2150 Rocket 4.1 22:28:56 51° SW 22:30:15 75° WNW 22:35:32 10° NNE
Cosmos 1125 Rocket 3.4 22:31:07 67° SSW 22:31:52 90° WNW 22:37:06 10° NNE
Cosmos 468 4.5 22:27:31 10° NNW 22:32:46 69° WSW 22:33:19 63° SSW
Cosmos 1975 3.9 22:29:55 10° NNW 22:33:30 37° W 22:33:30 37° W
ISS -1.2 22:31:16 10° NW 22:33:56 21° N 22:36:27 11° NE
Cosmos 1703 Rocket 3.5 22:34:26 76° W 22:34:26 76° W 22:38:53 10° N
Cosmos 1378 4.1 22:38:54 42° NNE 22:38:54 42° NNE 22:41:31 10° NNE
Cosmos 1782 Rocket 3.6 22:34:42 10° N 22:38:55 77° NNE 22:38:55 77° NNE
Cosmos 724 4.4 22:46:12 44° SW 22:48:18 82° NW 22:54:36 10° NNE
Lacrosse 5 1.8 22:48:54 70° WSW 22:49:30 84° NW 22:54:37 10° NE
RESURS DK-1 3.8 22:46:55 10° NW 22:49:50 29° W 22:49:50 29° W
Cosmos 1934 Rocket 4.1 22:48:14 10° N 22:54:14 57° ENE 22:55:20 50° ESE
Cosmos 1066 Rocket 4.1 22:55:52 69° SSE 22:56:26 76° E 23:02:02 10° NNE
Cosmos 1805 4.3 22:52:46 10° N 22:55:42 41° NE 22:55:42 41° NE
Cosmos 1356 Rocket 3.8 22:58:05 10° NNW 23:01:50 62° NW 23:01:50 62° NW
Cosmos 2227 Rocket 4.1 22:59:39 10° N 23:04:01 22° NE 23:07:26 14° E
Cosmos 2297 Rocket 3.7 23:01:10 10° N 23:06:03 28° NE 23:08:40 20° E
Okean 3 3.9 23:06:38 60° NW 23:06:38 60° NW 23:10:20 10° N
Cosmos 1821 Rocket 4.1 23:00:15 10° NNW 23:06:36 66° W 23:07:52 54° SW
Meteor 1-12 Rocket 4.3 23:05:49 10° NNW 23:11:34 64° W 23:12:13 59° SW
NOSS 2-1 (E) 4.3 23:11:17 10° NW 23:16:31 80° SW 23:17:30 65° SSE
Cosmos 44 Rocket 4.0 23:12:31 10° NW 23:16:57 45° W 23:16:57 45° W
Cosmos 1766 4.2 23:14:15 10° N 23:17:13 45° NNE 23:17:13 45° NNE
Meteor 1-15 Rocket 4.1 23:13:22 10° N 23:19:09 89° W 23:19:48 72° S
Cosmos 2221 Rocket 3.8 23:23:40 71° NNE 23:23:40 71° NNE 23:27:45 10° N
COSMOS 2455 3.1 23:21:04 10° NNW 23:27:04 62° NE 23:28:40 46° ESE
ALOS 2 3.1 23:29:20 51° WNW 23:29:20 51° WNW 23:33:02 10° NNW
COBE Rocket 4.0 23:31:00 70° WSW 23:31:02 70° W 23:36:13 10° NNW
Nimbus 7 Rocket 4.3 23:25:46 10° NNE 23:31:44 88° ESE 23:32:34 68° SSW
Cosmos 1300 Rocket 4.1 23:30:41 10° NNW 23:34:19 51° NW 23:34:19 51° NW
Cosmos 1535 Rocket 4.4 23:28:41 10° N 23:35:00 79° W 23:36:02 63° SSW
Cosmos 1269 Rocket 4.1 23:29:58 10° NNW 23:35:07 65° W 23:35:07 65° W
USA 81 4.0 23:30:57 10° N 23:36:14 70° E 23:36:30 68° ESE
Cosmos 1932 4.5 23:35:56 60° SE 23:36:26 62° ESE 23:42:42 10° NE
Cosmos 1470 4.2 23:33:35 10° N 23:36:35 32° NE 23:36:35 32° NE
Cosmos 1727 Rocket 4.4 23:36:38 44° ESE 23:37:43 49° E 23:43:48 10° NNE
Cosmos 2251 Rocket 4.4 23:36:44 10° N 23:41:43 41° ENE 23:42:54 36° E
Cosmos 1842 4.2 23:46:42 45° NNE 23:46:42 45° NNE 23:49:30 10° N
Thor Agena Rocket 3.5 23:47:07 10° NNE 23:52:24 79° WNW 23:52:46 74° WSW
